Time,TemperatureF,DewpointF,PressureIn,WindDirection,WindDirectionDegrees,WindSpeedMPH,WindSpeedGustMPH,Humidity,HourlyPrecipIn,Conditions,Clouds,dailyrainin,SolarRadiationWatts/m^2,SoftwareType,DateUTC
2013-04-23 00:02:00,64.2,28.0,29.82,NE,48,0.0,1.0,25,0.00,,,0.00,0,weatherlink.com 1.10,2013-04-23 07:02:00,
2013-04-23 00:17:00,64.2,27.0,29.82,NE,51,0.0,2.0,24,0.00,,,0.00,0,weatherlink.com 1.10,2013-04-23 07:17:00,
2013-04-23 00:32:00,63.7,26.0,29.83,ENE,65,0.0,1.0,24,0.00,,,0.00,0,weatherlink.com 1.10,2013-04-23 07:32:00,
2013-04-23 00:47:00,61.3,28.0,29.83,ENE,65,0.0,1.0,28,0.00,,,0.00,0,weatherlink.com 1.10,2013-04-23 07:47:00,
2013-04-23 01:02:00,61.5,24.0,29.84,East,86,0.0,1.0,24,0.00,,,0.00,0,weatherlink.com 1.10,2013-04-23 08:02:00,
2013-04-23 01:17:00,61.2,25.0,29.84,ENE,76,0.0,1.0,25,0.00,,,0.00,0,weatherlink.com 1.10,2013-04-23 08:17:00,
2013-04-23 01:32:00,60.7,25.0,29.84,ESE,107,0.0,2.0,26,0.00,,,0.00,0,weatherlink.com 1.10,2013-04-23 08:32:00,
2013-04-23 01:47:00,59.9,23.0,29.83,ENE,73,0.0,1.0,24,0.00,,,0.00,0,weatherlink.com 1.10,2013-04-23 08:47:00,
2013-04-23 02:02:00,61.5,21.0,29.82,NE,55,1.0,4.0,21,0.00,,,0.00,0,weatherlink.com 1.10,2013-04-23 09:02:00,
2013-04-23 02:17:00,61.3,22.0,29.82,NE,55,0.0,2.0,22,0.00,,,0.00,0,weatherlink.com 1.10,2013-04-23 09:17:00,
2013-04-23 02:32:00,61.8,20.0,29.82,ENE,59,0.0,3.0,20,0.00,,,0.00,0,weatherlink.com 1.10,2013-04-23 09:32:00,
2013-04-23 02:47:00,61.0,22.0,29.82,East,86,1.0,1.0,22,0.00,,,0.00,0,weatherlink.com 1.10,2013-04-23 09:47:00,
2013-04-23 03:02:00,61.2,20.0,29.82,East,89,0.0,3.0,20,0.00,,,0.00,0,weatherlink.com 1.10,2013-04-23 10:02:00,
2013-04-23 03:17:00,61.2,18.0,29.82,NE,47,0.0,5.0,19,0.00,,,0.00,0,weatherlink.com 1.10,2013-04-23 10:17:00,
2013-04-23 03:32:00,60.7,18.0,29.82,NE,51,2.0,3.0,19,0.00,,,0.00,0,weatherlink.com 1.10,2013-04-23 10:32:00,
2013-04-23 03:47:00,60.4,18.0,29.82,NE,41,1.0,2.0,19,0.00,,,0.00,0,weatherlink.com 1.10,2013-04-23 10:47:00,
2013-04-23 04:02:00,60.4,18.0,29.82,NNE,32,0.0,3.0,19,0.00,,,0.00,0,weatherlink.com 1.10,2013-04-23 11:02:00,
2013-04-23 04:17:00,60.2,16.0,29.82,NE,42,4.0,4.0,18,0.00,,,0.00,0,weatherlink.com 1.10,2013-04-23 11:17:00,
2013-04-23 04:32:00,60.2,16.0,29.82,NE,50,0.0,3.0,18,0.00,,,0.00,0,weatherlink.com 1.10,2013-04-23 11:32:00,
2013-04-23 04:47:00,59.2,17.0,29.82,NE,46,0.0,3.0,19,0.00,,,0.00,0,weatherlink.com 1.10,2013-04-23 11:47:00,
2013-04-23 05:02:00,59.5,16.0,29.83,NE,34,0.0,4.0,18,0.00,,,0.00,0,weatherlink.com 1.10,2013-04-23 12:02:00,
2013-04-23 05:17:00,59.0,17.0,29.82,NE,51,1.0,3.0,19,0.00,,,0.00,0,weatherlink.com 1.10,2013-04-23 12:17:00,
2013-04-23 05:32:00,58.7,15.0,29.82,NNE,19,2.0,3.0,18,0.00,,,0.00,0,weatherlink.com 1.10,2013-04-23 12:32:00,
2013-04-23 05:47:00,57.8,16.0,29.82,East,98,0.0,2.0,19,0.00,,,0.00,0,weatherlink.com 1.10,2013-04-23 12:47:00,
2013-04-23 06:02:00,56.6,16.0,29.82,ENE,65,0.0,3.0,20,0.00,,,0.00,0,weatherlink.com 1.10,2013-04-23 13:02:00,
2013-04-23 06:17:00,57.2,15.0,29.82,NE,43,0.0,2.0,19,0.00,,,0.00,0,weatherlink.com 1.10,2013-04-23 13:17:00,
2013-04-23 06:32:00,56.7,16.0,29.83,NW,322,0.0,3.0,20,0.00,,,0.00,7,weatherlink.com 1.10,2013-04-23 13:32:00,
2013-04-23 06:48:00,56.3,17.0,29.83,North,350,1.0,5.0,21,0.00,,,0.00,11,weatherlink.com 1.10,2013-04-23 13:48:00,
2013-04-23 07:03:00,56.9,15.0,29.82,NE,47,0.0,3.0,19,0.00,,,0.00,14,weatherlink.com 1.10,2013-04-23 14:03:00,
2013-04-23 07:18:00,57.8,16.0,29.82,ENE,58,0.0,3.0,19,0.00,,,0.00,19,weatherlink.com 1.10,2013-04-23 14:18:00,
2013-04-23 07:33:00,58.7,15.0,29.82,NE,51,1.0,6.0,18,0.00,,,0.00,26,weatherlink.com 1.10,2013-04-23 14:33:00,
2013-04-23 07:48:00,59.9,16.0,29.82,East,94,0.0,6.0,18,0.00,,,0.00,33,weatherlink.com 1.10,2013-04-23 14:48:00,
2013-04-23 08:03:00,61.0,16.0,29.82,NE,53,0.0,6.0,17,0.00,,,0.00,47,weatherlink.com 1.10,2013-04-23 15:03:00,
2013-04-23 08:18:00,61.6,16.0,29.83,East,94,1.0,4.0,17,0.00,,,0.00,56,weatherlink.com 1.10,2013-04-23 15:18:00,
2013-04-23 08:33:00,62.3,18.0,29.84,NE,56,1.0,6.0,18,0.00,,,0.00,83,weatherlink.com 1.10,2013-04-23 15:33:00,
2013-04-23 08:48:00,63.1,19.0,29.84,East,98,0.0,6.0,18,0.00,,,0.00,102,weatherlink.com 1.10,2013-04-23 15:48:00,
2013-04-23 09:03:00,63.5,20.0,29.84,NE,44,1.0,4.0,19,0.00,,,0.00,127,weatherlink.com 1.10,2013-04-23 16:03:00,
2013-04-23 09:18:00,64.5,21.0,29.83,NE,36,0.0,3.0,19,0.00,,,0.00,179,weatherlink.com 1.10,2013-04-23 16:18:00,
2013-04-23 09:33:00,65.8,22.0,29.83,NE,46,2.0,3.0,19,0.00,,,0.00,93,weatherlink.com 1.10,2013-04-23 16:33:00,
2013-04-23 09:48:00,67.1,25.0,29.83,West,267,0.0,4.0,20,0.00,,,0.00,84,weatherlink.com 1.10,2013-04-23 16:48:00,
2013-04-23 10:03:00,69.1,26.0,29.83,NNW,348,0.0,3.0,20,0.00,,,0.00,97,weatherlink.com 1.10,2013-04-23 17:03:00,
2013-04-23 10:18:00,69.9,29.0,29.84,SW,223,3.0,4.0,22,0.00,,,0.00,77,weatherlink.com 1.10,2013-04-23 17:18:00,
2013-04-23 10:33:00,71.6,23.0,29.84,West,259,0.0,4.0,16,0.00,,,0.00,765,weatherlink.com 1.10,2013-04-23 17:33:00,
2013-04-23 10:48:00,72.1,22.0,29.85,ENE,61,2.0,3.0,15,0.00,,,0.00,802,weatherlink.com 1.10,2013-04-23 17:48:00,
2013-04-23 11:03:00,73.3,29.0,29.85,SW,229,0.0,1.0,19,0.00,,,0.00,835,weatherlink.com 1.10,2013-04-23 18:03:00,
2013-04-23 11:18:00,76.7,22.0,29.85,NNW,348,0.0,2.0,13,0.00,,,0.00,863,weatherlink.com 1.10,2013-04-23 18:18:00,
2013-04-23 11:33:00,76.3,30.0,29.85,WNW,303,0.0,1.0,18,0.00,,,0.00,884,weatherlink.com 1.10,2013-04-23 18:33:00,
2013-04-23 11:48:00,77.2,30.0,29.84,SW,236,0.0,2.0,18,0.00,,,0.00,905,weatherlink.com 1.10,2013-04-23 18:48:00,
2013-04-23 12:03:00,74.4,29.0,29.84,SE,139,0.0,4.0,19,0.00,,,0.00,923,weatherlink.com 1.10,2013-04-23 19:03:00,
2013-04-23 12:18:00,75.8,33.0,29.83,NE,34,0.0,3.0,21,0.00,,,0.00,940,weatherlink.com 1.10,2013-04-23 19:18:00,
2013-04-23 12:33:00,79.0,38.0,29.83,North,351,1.0,5.0,23,0.00,,,0.00,944,weatherlink.com 1.10,2013-04-23 19:33:00,
2013-04-23 12:48:00,77.4,38.0,29.83,North,351,0.0,4.0,24,0.00,,,0.00,951,weatherlink.com 1.10,2013-04-23 19:48:00,
2013-04-23 13:03:00,76.5,38.0,29.83,West,280,0.0,3.0,25,0.00,,,0.00,947,weatherlink.com 1.10,2013-04-23 20:03:00,
2013-04-23 13:18:00,77.0,40.0,29.83,East,90,3.0,5.0,26,0.00,,,0.00,947,weatherlink.com 1.10,2013-04-23 20:18:00,
2013-04-23 13:33:00,76.7,37.0,29.83,North,351,0.0,3.0,24,0.00,,,0.00,942,weatherlink.com 1.10,2013-04-23 20:33:00,
2013-04-23 13:48:00,76.5,36.0,29.83,NE,36,0.0,3.0,23,0.00,,,0.00,937,weatherlink.com 1.10,2013-04-23 20:48:00,
2013-04-23 14:03:00,76.7,36.0,29.83,WNW,293,0.0,4.0,23,0.00,,,0.00,919,weatherlink.com 1.10,2013-04-23 21:03:00,
2013-04-23 14:18:00,75.8,36.0,29.83,SW,215,4.0,4.0,24,0.00,,,0.00,904,weatherlink.com 1.10,2013-04-23 21:18:00,
2013-04-23 14:34:00,76.5,36.0,29.82,South,179,0.0,2.0,23,0.00,,,0.00,879,weatherlink.com 1.10,2013-04-23 21:34:00,
2013-04-23 14:49:00,77.7,34.0,29.82,North,10,1.0,5.0,20,0.00,,,0.00,851,weatherlink.com 1.10,2013-04-23 21:49:00,
2013-04-23 15:04:00,76.1,35.0,29.82,NE,44,0.0,3.0,22,0.00,,,0.00,649,weatherlink.com 1.10,2013-04-23 22:04:00,
2013-04-23 15:19:00,76.1,33.0,29.82,NNW,335,0.0,3.0,21,0.00,,,0.00,125,weatherlink.com 1.10,2013-04-23 22:19:00,
2013-04-23 15:34:00,75.1,34.0,29.82,NNE,21,0.0,3.0,22,0.00,,,0.00,91,weatherlink.com 1.10,2013-04-23 22:34:00,
2013-04-23 15:49:00,75.3,35.0,29.82,North,11,0.0,3.0,23,0.00,,,0.00,561,weatherlink.com 1.10,2013-04-23 22:49:00,
2013-04-23 16:04:00,74.0,33.0,29.81,South,188,0.0,4.0,22,0.00,,,0.00,93,weatherlink.com 1.10,2013-04-23 23:04:00,
2013-04-23 16:19:00,74.7,33.0,29.81,North,10,0.0,2.0,22,0.00,,,0.00,72,weatherlink.com 1.10,2013-04-23 23:19:00,
2013-04-23 16:34:00,73.3,30.0,29.81,NE,41,0.0,3.0,20,0.00,,,0.00,107,weatherlink.com 1.10,2013-04-23 23:34:00,
2013-04-23 16:49:00,73.3,29.0,29.80,SSE,150,0.0,4.0,19,0.00,,,0.00,63,weatherlink.com 1.10,2013-04-23 23:49:00,
2013-04-23 17:04:00,73.2,32.0,29.80,ENE,59,0.0,2.0,22,0.00,,,0.00,67,weatherlink.com 1.10,2013-04-24 00:04:00,
2013-04-23 17:19:00,73.9,32.0,29.80,North,351,0.0,3.0,21,0.00,,,0.00,97,weatherlink.com 1.10,2013-04-24 00:19:00,
2013-04-23 17:34:00,72.7,34.0,29.80,NNW,347,0.0,2.0,24,0.00,,,0.00,79,weatherlink.com 1.10,2013-04-24 00:34:00,
2013-04-23 17:49:00,72.3,30.0,29.80,WSW,239,0.0,1.0,21,0.00,,,0.00,51,weatherlink.com 1.10,2013-04-24 00:49:00,
2013-04-23 18:04:00,72.3,30.0,29.80,South,182,0.0,1.0,21,0.00,,,0.00,79,weatherlink.com 1.10,2013-04-24 01:04:00,
2013-04-23 18:19:00,71.5,36.0,29.80,East,79,0.0,0.0,27,0.00,,,0.00,86,weatherlink.com 1.10,2013-04-24 01:19:00,
2013-04-23 18:34:00,70.9,31.0,29.80,East,79,0.0,0.0,23,0.00,,,0.00,40,weatherlink.com 1.10,2013-04-24 01:34:00,
2013-04-23 18:49:00,69.9,33.0,29.80,East,79,0.0,0.0,26,0.00,,,0.00,30,weatherlink.com 1.10,2013-04-24 01:49:00,
2013-04-23 19:04:00,69.1,33.0,29.79,East,79,0.0,0.0,26,0.00,,,0.00,25,weatherlink.com 1.10,2013-04-24 02:04:00,
2013-04-23 19:19:00,67.9,33.0,29.79,East,79,0.0,0.0,28,0.00,,,0.00,18,weatherlink.com 1.10,2013-04-24 02:19:00,
2013-04-23 19:49:00,65.2,34.0,29.79,East,79,0.0,0.0,32,0.00,,,0.00,0,weatherlink.com 1.10,2013-04-24 02:49:00,
2013-04-23 20:04:00,64.2,31.0,29.79,East,79,0.0,0.0,29,0.00,,,0.00,0,weatherlink.com 1.10,2013-04-24 03:04:00,
2013-04-23 20:19:00,63.5,31.0,29.80,East,79,0.0,0.0,29,0.00,,,0.00,0,weatherlink.com 1.10,2013-04-24 03:19:00,
2013-04-23 20:34:00,62.9,28.0,29.80,East,79,0.0,0.0,27,0.00,,,0.00,0,weatherlink.com 1.10,2013-04-24 03:34:00,
2013-04-23 20:49:00,62.6,29.0,29.80,East,79,0.0,0.0,28,0.00,,,0.00,0,weatherlink.com 1.10,2013-04-24 03:49:00,
2013-04-23 21:04:00,62.1,28.0,29.80,East,79,0.0,0.0,28,0.00,,,0.00,0,weatherlink.com 1.10,2013-04-24 04:04:00,
2013-04-23 21:19:00,61.6,29.0,29.81,East,79,0.0,0.0,29,0.00,,,0.00,0,weatherlink.com 1.10,2013-04-24 04:19:00,
2013-04-23 21:34:00,61.5,29.0,29.81,East,79,0.0,0.0,29,0.00,,,0.00,0,weatherlink.com 1.10,2013-04-24 04:34:00,
2013-04-23 21:49:00,60.4,31.0,29.81,East,79,0.0,0.0,33,0.00,,,0.00,0,weatherlink.com 1.10,2013-04-24 04:49:00,
2013-04-23 22:04:00,59.3,31.0,29.82,East,79,0.0,0.0,35,0.00,,,0.00,0,weatherlink.com 1.10,2013-04-24 05:04:00,
2013-04-23 22:19:00,58.1,32.0,29.81,East,79,0.0,0.0,38,0.00,,,0.00,0,weatherlink.com 1.10,2013-04-24 05:19:00,
2013-04-23 22:34:00,57.8,34.0,29.81,East,79,0.0,0.0,41,0.00,,,0.00,0,weatherlink.com 1.10,2013-04-24 05:34:00,
2013-04-23 22:49:00,56.3,37.0,29.81,East,79,0.0,0.0,49,0.00,,,0.00,0,weatherlink.com 1.10,2013-04-24 05:49:00,
2013-04-23 23:04:00,57.0,35.0,29.81,East,79,0.0,0.0,44,0.00,,,0.00,0,weatherlink.com 1.10,2013-04-24 06:04:00,
2013-04-23 23:19:00,56.7,36.0,29.81,East,79,0.0,0.0,46,0.00,,,0.00,0,weatherlink.com 1.10,2013-04-24 06:19:00,
2013-04-23 23:34:00,55.9,36.0,29.81,East,79,0.0,0.0,48,0.00,,,0.00,0,weatherlink.com 1.10,2013-04-24 06:34:00,
2013-04-23 23:49:00,54.7,39.0,29.81,East,79,0.0,0.0,55,0.00,,,0.00,0,weatherlink.com 1.10,2013-04-24 06:49:00,